Year,Month,Day,Hour,Minute,Value (Times are PST for temperature in C)
2014,06,08,07,20,13.40
2014,06,08,07,21,13.30
2014,06,08,07,22,13.30
2014,06,08,07,23,13.30
2014,06,08,07,24,13.40
2014,06,08,07,25,13.40
2014,06,08,07,26,13.40
2014,06,08,07,27,13.40
2014,06,08,07,28,13.40
2014,06,08,07,29,13.50
2014,06,08,07,30,13.50
2014,06,08,07,31,13.50
2014,06,08,07,32,13.60
2014,06,08,07,33,13.60
2014,06,08,07,34,13.60
2014,06,08,07,35,13.60
2014,06,08,07,36,13.60
2014,06,08,07,37,13.60
2014,06,08,07,38,13.60
2014,06,08,07,39,13.60
2014,06,08,07,40,13.60
2014,06,08,07,41,13.60
2014,06,08,07,42,13.60
2014,06,08,07,43,13.70
2014,06,08,07,44,13.70
2014,06,08,07,45,13.70
2014,06,08,07,46,13.80
2014,06,08,07,47,13.80
2014,06,08,07,48,13.90
2014,06,08,07,49,14.00
2014,06,08,07,50,14.00
2014,06,08,07,51,14.10
2014,06,08,07,52,14.20
2014,06,08,07,53,14.20
2014,06,08,07,54,14.20
2014,06,08,07,55,14.30
2014,06,08,07,56,14.30
2014,06,08,07,57,14.40
2014,06,08,07,58,14.40
2014,06,08,07,59,14.50
2014,06,08,08,00,14.60
2014,06,08,08,01,14.60
2014,06,08,08,02,14.70
2014,06,08,08,03,14.70
2014,06,08,08,04,14.80
2014,06,08,08,05,14.80
2014,06,08,08,06,14.80
2014,06,08,08,07,14.90
2014,06,08,08,08,14.90
2014,06,08,08,09,15.00
2014,06,08,08,10,15.00
2014,06,08,08,11,15.10
2014,06,08,08,12,15.10
2014,06,08,08,13,15.10
2014,06,08,08,14,15.20
2014,06,08,08,15,15.20
2014,06,08,08,16,15.20
2014,06,08,08,17,15.20
2014,06,08,08,18,15.20
2014,06,08,08,19,15.20
2014,06,08,08,20,15.10
2014,06,08,08,21,15.10
2014,06,08,08,22,15.00
2014,06,08,08,23,14.90
2014,06,08,08,24,14.80
2014,06,08,08,25,14.70
2014,06,08,08,26,14.70
2014,06,08,08,27,14.60
2014,06,08,08,28,14.50
2014,06,08,08,29,14.50
2014,06,08,08,30,14.40
2014,06,08,08,31,14.30
2014,06,08,08,32,14.20
2014,06,08,08,33,14.10
2014,06,08,08,34,14.10
2014,06,08,08,35,14.10
2014,06,08,08,36,14.10
2014,06,08,08,37,14.10
2014,06,08,08,38,14.10
2014,06,08,08,39,14.10
2014,06,08,08,40,14.20
2014,06,08,08,41,14.20
2014,06,08,08,42,14.20
2014,06,08,08,43,14.30
2014,06,08,08,44,14.30
2014,06,08,08,45,14.40
2014,06,08,08,46,14.40
2014,06,08,08,47,14.40
2014,06,08,08,48,14.50
2014,06,08,08,49,14.50
2014,06,08,08,50,14.60
2014,06,08,08,51,14.60
2014,06,08,08,52,14.60
2014,06,08,08,53,14.70
2014,06,08,08,54,14.70
2014,06,08,08,55,14.70
2014,06,08,08,56,14.80
2014,06,08,08,57,14.80
2014,06,08,08,58,14.80
2014,06,08,08,59,14.80
2014,06,08,09,00,14.80
2014,06,08,09,01,14.90
2014,06,08,09,02,14.90
2014,06,08,09,03,14.90
2014,06,08,09,04,15.00
2014,06,08,09,05,15.10
2014,06,08,09,06,15.10
2014,06,08,09,07,15.10
2014,06,08,09,08,15.10
2014,06,08,09,09,15.20
2014,06,08,09,10,15.20
2014,06,08,09,11,15.30
2014,06,08,09,12,15.30
2014,06,08,09,13,15.30
2014,06,08,09,14,15.30
2014,06,08,09,15,15.40
2014,06,08,09,16,15.40
2014,06,08,09,17,15.40
2014,06,08,09,18,15.40
2014,06,08,09,19,15.50
2014,06,08,09,20,15.50
2014,06,08,09,21,15.60
2014,06,08,09,22,15.60
2014,06,08,09,23,15.60
2014,06,08,09,24,15.60
2014,06,08,09,25,15.60
2014,06,08,09,26,15.60
2014,06,08,09,27,15.60
2014,06,08,09,28,15.50
2014,06,08,09,29,15.50
2014,06,08,09,30,15.50
2014,06,08,09,31,15.50
2014,06,08,09,32,15.50
2014,06,08,09,33,15.50
2014,06,08,09,34,15.40
2014,06,08,09,35,15.40
2014,06,08,09,36,15.50
2014,06,08,09,37,15.50
2014,06,08,09,38,15.50
2014,06,08,09,39,15.60
2014,06,08,09,40,15.60
2014,06,08,09,41,15.70
2014,06,08,09,42,15.70
2014,06,08,09,43,15.70
2014,06,08,09,44,15.70
2014,06,08,09,45,15.70
2014,06,08,09,46,15.70
2014,06,08,09,47,15.60
2014,06,08,09,48,15.60
2014,06,08,09,49,15.60
2014,06,08,09,50,15.60
2014,06,08,09,51,15.50
2014,06,08,09,52,15.50
2014,06,08,09,53,15.50
2014,06,08,09,54,15.60
2014,06,08,09,55,15.70
2014,06,08,09,56,15.70
2014,06,08,09,57,15.80
2014,06,08,09,58,15.80
2014,06,08,09,59,15.80
2014,06,08,10,00,15.80
2014,06,08,10,01,15.80
2014,06,08,10,02,15.80
2014,06,08,10,03,15.90
2014,06,08,10,04,15.90
2014,06,08,10,05,15.90
2014,06,08,10,06,15.90
2014,06,08,10,07,15.90
2014,06,08,10,08,15.90
2014,06,08,10,09,15.90
2014,06,08,10,10,15.90
2014,06,08,10,11,15.90
2014,06,08,10,12,15.90
2014,06,08,10,13,15.80
2014,06,08,10,14,15.80
2014,06,08,10,15,15.70
2014,06,08,10,16,15.70
2014,06,08,10,17,15.70
2014,06,08,10,18,15.70
2014,06,08,10,19,15.70
2014,06,08,10,20,15.80
2014,06,08,10,21,15.80
2014,06,08,10,22,15.90
2014,06,08,10,23,15.90
2014,06,08,10,24,15.90
2014,06,08,10,25,16.00
2014,06,08,10,26,16.00
2014,06,08,10,27,16.00
2014,06,08,10,28,16.10
2014,06,08,10,29,16.10
2014,06,08,10,30,16.20
2014,06,08,10,31,16.20
2014,06,08,10,32,16.20
2014,06,08,10,33,16.30
2014,06,08,10,34,16.30
2014,06,08,10,35,16.30
2014,06,08,10,36,16.40
2014,06,08,10,37,16.40
2014,06,08,10,38,16.40
2014,06,08,10,39,16.30
2014,06,08,10,40,16.30
2014,06,08,10,41,16.30
2014,06,08,10,42,16.30
2014,06,08,10,43,16.30
2014,06,08,10,44,16.30
2014,06,08,10,45,16.30
2014,06,08,10,46,16.30
2014,06,08,10,47,16.40
2014,06,08,10,48,16.40
2014,06,08,10,49,16.40
2014,06,08,10,50,16.40
2014,06,08,10,51,16.40
2014,06,08,10,52,16.30
2014,06,08,10,53,16.30
2014,06,08,10,54,16.30
2014,06,08,10,55,16.30
2014,06,08,10,56,16.30
2014,06,08,10,57,16.30
2014,06,08,10,58,16.30
2014,06,08,10,59,16.20
2014,06,08,11,00,16.20
2014,06,08,11,01,16.20
2014,06,08,11,02,16.20
2014,06,08,11,03,16.20
2014,06,08,11,04,16.20
2014,06,08,11,05,16.20
2014,06,08,11,06,16.20
2014,06,08,11,07,16.20
2014,06,08,11,08,16.10
2014,06,08,11,09,16.10
2014,06,08,11,10,16.20
2014,06,08,11,11,16.20
2014,06,08,11,12,16.20
2014,06,08,11,13,16.20
2014,06,08,11,14,16.20
2014,06,08,11,15,16.20
2014,06,08,11,16,16.20
2014,06,08,11,17,16.30
2014,06,08,11,18,16.30
2014,06,08,11,19,16.30
2014,06,08,11,20,16.30
2014,06,08,11,21,16.30
2014,06,08,11,22,16.40
2014,06,08,11,23,16.40
2014,06,08,11,24,16.40
2014,06,08,11,25,16.40
2014,06,08,11,26,16.40
2014,06,08,11,27,16.50
2014,06,08,11,28,16.50
2014,06,08,11,29,16.50
2014,06,08,11,30,16.50
2014,06,08,11,31,16.50
2014,06,08,11,32,16.40
2014,06,08,11,33,16.40
2014,06,08,11,34,16.40
2014,06,08,11,35,16.40
2014,06,08,11,36,16.40
2014,06,08,11,37,16.40
2014,06,08,11,38,16.40
2014,06,08,11,39,16.40
2014,06,08,11,40,16.40
2014,06,08,11,41,16.40
2014,06,08,11,42,16.40
2014,06,08,11,43,16.50
2014,06,08,11,44,16.50
2014,06,08,11,45,16.60
2014,06,08,11,46,16.60
2014,06,08,11,47,16.60
2014,06,08,11,48,16.70
2014,06,08,11,49,16.80
2014,06,08,11,50,16.90
2014,06,08,11,51,17.00
2014,06,08,11,52,17.10
2014,06,08,11,53,17.10
2014,06,08,11,54,17.10
2014,06,08,11,55,17.20
2014,06,08,11,56,17.30
2014,06,08,11,57,17.40
2014,06,08,11,58,17.40
2014,06,08,11,59,17.50
2014,06,08,12,00,17.50
2014,06,08,12,01,17.50
2014,06,08,12,02,17.50
2014,06,08,12,03,17.50
2014,06,08,12,04,17.60
2014,06,08,12,05,17.60
2014,06,08,12,06,17.60
2014,06,08,12,07,17.70
2014,06,08,12,08,17.60
2014,06,08,12,09,17.60
2014,06,08,12,10,17.60
2014,06,08,12,11,17.60
2014,06,08,12,12,17.60
2014,06,08,12,13,17.50
2014,06,08,12,14,17.50
2014,06,08,12,15,17.60
2014,06,08,12,16,17.60
2014,06,08,12,17,17.40
2014,06,08,12,18,17.10
2014,06,08,12,19,16.70
2014,06,08,12,20,16.40
2014,06,08,12,21,16.20
2014,06,08,12,22,16.10
2014,06,08,12,23,16.10
2014,06,08,12,24,16.10
2014,06,08,12,25,16.20
2014,06,08,12,26,16.20
2014,06,08,12,27,16.30
2014,06,08,12,28,16.20
2014,06,08,12,29,16.20
2014,06,08,12,30,16.20
2014,06,08,12,31,16.10
2014,06,08,12,32,15.90
2014,06,08,12,33,15.80
2014,06,08,12,34,15.70
2014,06,08,12,35,15.60
2014,06,08,12,36,15.50
2014,06,08,12,37,15.50
2014,06,08,12,38,15.40
2014,06,08,12,39,15.30
2014,06,08,12,40,15.20
2014,06,08,12,41,15.10
2014,06,08,12,42,15.00
2014,06,08,12,43,15.00
2014,06,08,12,44,15.00
2014,06,08,12,45,15.10
2014,06,08,12,46,15.10
2014,06,08,12,47,15.00
2014,06,08,12,48,14.90
2014,06,08,12,49,14.90
2014,06,08,12,50,15.00
2014,06,08,12,51,15.10
2014,06,08,12,52,15.30
2014,06,08,12,53,15.40
2014,06,08,12,54,15.50
2014,06,08,12,55,15.60
2014,06,08,12,56,15.60
2014,06,08,12,57,15.60
2014,06,08,12,58,15.60
2014,06,08,12,59,15.60
2014,06,08,13,00,15.60
2014,06,08,13,01,15.50
2014,06,08,13,02,15.50
2014,06,08,13,03,15.40
2014,06,08,13,04,15.30
2014,06,08,13,05,15.20
2014,06,08,13,06,15.10
2014,06,08,13,07,15.10
2014,06,08,13,08,15.00
2014,06,08,13,09,14.90
2014,06,08,13,10,14.90
2014,06,08,13,11,14.80
2014,06,08,13,12,14.60
2014,06,08,13,13,14.50
2014,06,08,13,14,14.40
2014,06,08,13,15,14.30
2014,06,08,13,16,14.30
2014,06,08,13,17,14.30
2014,06,08,13,18,14.30
2014,06,08,13,19,14.20
2014,06,08,13,20,14.20
2014,06,08,13,21,14.10
2014,06,08,13,22,14.20
2014,06,08,13,23,14.20
2014,06,08,13,24,14.20
2014,06,08,13,25,14.30
2014,06,08,13,26,14.30
2014,06,08,13,27,14.40
2014,06,08,13,28,14.40
2014,06,08,13,29,14.40
2014,06,08,13,30,14.40
2014,06,08,13,31,14.40
2014,06,08,13,32,14.40
2014,06,08,13,33,14.40
2014,06,08,13,34,14.30
2014,06,08,13,35,14.30
2014,06,08,13,36,14.20
2014,06,08,13,37,14.20
2014,06,08,13,38,14.10
2014,06,08,13,39,14.10
2014,06,08,13,40,14.10
2014,06,08,13,41,14.10
2014,06,08,13,42,14.10
2014,06,08,13,43,14.10
2014,06,08,13,44,14.10
2014,06,08,13,45,14.20
2014,06,08,13,46,14.30
2014,06,08,13,47,14.50
2014,06,08,13,48,14.60
2014,06,08,13,49,14.70
2014,06,08,13,50,14.70
2014,06,08,13,51,14.80
2014,06,08,13,52,14.80
2014,06,08,13,53,14.80
2014,06,08,13,54,14.90
2014,06,08,13,55,14.90
2014,06,08,13,56,14.90
2014,06,08,13,57,14.90
2014,06,08,13,58,14.80
2014,06,08,13,59,14.80
2014,06,08,14,00,14.80
2014,06,08,14,01,14.90
2014,06,08,14,02,15.00
2014,06,08,14,03,15.10
2014,06,08,14,04,15.40
2014,06,08,14,05,15.70
2014,06,08,14,06,16.00
2014,06,08,14,07,16.30
2014,06,08,14,08,16.50
2014,06,08,14,09,16.70
2014,06,08,14,10,16.90
2014,06,08,14,11,17.00
2014,06,08,14,12,17.10
2014,06,08,14,13,17.10
2014,06,08,14,14,17.10
2014,06,08,14,15,17.10
2014,06,08,14,16,17.10
2014,06,08,14,17,17.10
2014,06,08,14,18,17.00
2014,06,08,14,19,16.90
2014,06,08,14,20,16.90
2014,06,08,14,21,16.70
2014,06,08,14,22,16.60
2014,06,08,14,23,16.40
2014,06,08,14,24,16.20
2014,06,08,14,25,16.00
2014,06,08,14,26,15.80
2014,06,08,14,27,15.60
2014,06,08,14,28,15.50
2014,06,08,14,29,15.30
2014,06,08,14,30,15.20
2014,06,08,14,31,15.00
2014,06,08,14,32,14.90
2014,06,08,14,33,14.80
2014,06,08,14,34,14.70
2014,06,08,14,35,14.60
2014,06,08,14,36,14.50
2014,06,08,14,37,14.50
2014,06,08,14,38,14.50
2014,06,08,14,39,14.60
2014,06,08,14,40,14.60
2014,06,08,14,41,14.60
2014,06,08,14,42,14.70
2014,06,08,14,43,14.70
2014,06,08,14,44,14.70
2014,06,08,14,45,14.70
2014,06,08,14,46,14.70
2014,06,08,14,47,14.70
2014,06,08,14,48,14.70
2014,06,08,14,49,14.80
2014,06,08,14,50,14.70
2014,06,08,14,51,14.70
2014,06,08,14,52,14.80
2014,06,08,14,53,14.80
2014,06,08,14,54,15.00
2014,06,08,14,55,15.20
2014,06,08,14,56,15.40
2014,06,08,14,57,15.60
2014,06,08,14,58,15.80
2014,06,08,14,59,15.90
2014,06,08,15,00,15.90
2014,06,08,15,01,16.00
2014,06,08,15,02,16.10
2014,06,08,15,03,16.20
2014,06,08,15,04,16.40
2014,06,08,15,05,16.60
2014,06,08,15,06,16.90
2014,06,08,15,07,17.30
2014,06,08,15,08,17.70
2014,06,08,15,09,18.20
2014,06,08,15,10,18.60
2014,06,08,15,11,19.00
2014,06,08,15,12,19.40
2014,06,08,15,13,19.70
2014,06,08,15,14,20.10
2014,06,08,15,15,20.50
2014,06,08,15,16,20.70
2014,06,08,15,17,21.00
2014,06,08,15,18,21.30
2014,06,08,15,19,21.50
2014,06,08,15,20,21.60
2014,06,08,15,21,21.70
2014,06,08,15,22,21.70
2014,06,08,15,23,21.80
2014,06,08,15,24,21.90
2014,06,08,15,25,21.90
2014,06,08,15,26,21.90
2014,06,08,15,27,21.90
2014,06,08,15,28,22.00
2014,06,08,15,29,22.10
2014,06,08,15,30,22.10
2014,06,08,15,31,22.10
2014,06,08,15,32,22.20
2014,06,08,15,33,22.20
2014,06,08,15,34,22.10
2014,06,08,15,35,22.00
2014,06,08,15,36,22.00
2014,06,08,15,37,21.90
2014,06,08,15,38,21.90
2014,06,08,15,39,21.90
2014,06,08,15,40,21.80
2014,06,08,15,41,21.80
2014,06,08,15,42,21.70
2014,06,08,15,43,21.70
2014,06,08,15,44,21.70
2014,06,08,15,45,21.70
2014,06,08,15,46,21.70
2014,06,08,15,47,21.70
2014,06,08,15,48,21.70
2014,06,08,15,49,21.70
2014,06,08,15,50,21.80
2014,06,08,15,51,21.80
2014,06,08,15,52,21.80
2014,06,08,15,53,21.80
2014,06,08,15,54,21.80
2014,06,08,15,55,21.80
2014,06,08,15,56,21.80
2014,06,08,15,57,21.70
2014,06,08,15,58,21.60
2014,06,08,15,59,21.60
2014,06,08,16,00,21.50
2014,06,08,16,01,21.40
2014,06,08,16,02,21.30
2014,06,08,16,03,21.30
2014,06,08,16,04,21.20
2014,06,08,16,05,21.10
2014,06,08,16,06,21.10
2014,06,08,16,07,21.10
2014,06,08,16,08,21.00
2014,06,08,16,09,21.00
2014,06,08,16,10,21.00
2014,06,08,16,11,20.90
2014,06,08,16,12,20.80
2014,06,08,16,13,20.80
2014,06,08,16,14,20.90
2014,06,08,16,15,20.90
2014,06,08,16,16,20.90
2014,06,08,16,17,20.90
2014,06,08,16,18,20.90
2014,06,08,16,19,21.00
2014,06,08,16,20,21.00
2014,06,08,16,21,21.10
2014,06,08,16,22,21.00
2014,06,08,16,23,21.00
2014,06,08,16,24,21.00
2014,06,08,16,25,21.00
2014,06,08,16,26,21.00
2014,06,08,16,27,20.90
2014,06,08,16,28,20.90
2014,06,08,16,29,20.90
2014,06,08,16,30,20.90
2014,06,08,16,31,20.90
2014,06,08,16,32,20.90
2014,06,08,16,33,21.00
2014,06,08,16,34,21.00
2014,06,08,16,35,21.00
2014,06,08,16,36,21.00
2014,06,08,16,37,20.90
2014,06,08,16,38,20.80
2014,06,08,16,39,20.80
2014,06,08,16,40,20.80
2014,06,08,16,41,20.90
2014,06,08,16,42,20.90
2014,06,08,16,43,20.90
2014,06,08,16,44,20.90
2014,06,08,16,45,20.90
2014,06,08,16,46,20.80
2014,06,08,16,47,20.60
2014,06,08,16,48,20.60
2014,06,08,16,49,20.50
2014,06,08,16,50,20.50
2014,06,08,16,51,20.50
2014,06,08,16,52,20.40
2014,06,08,16,53,20.40
2014,06,08,16,54,20.30
2014,06,08,16,55,20.30
2014,06,08,16,56,20.20
2014,06,08,16,57,20.20
2014,06,08,16,58,20.20
2014,06,08,16,59,20.10
2014,06,08,17,00,20.10
2014,06,08,17,01,20.10
2014,06,08,17,02,20.10
2014,06,08,17,03,20.00
2014,06,08,17,04,20.10
2014,06,08,17,05,20.10
2014,06,08,17,06,20.10
2014,06,08,17,07,20.20
2014,06,08,17,08,20.20
2014,06,08,17,09,20.20
2014,06,08,17,10,20.10
2014,06,08,17,11,20.10
2014,06,08,17,12,20.00
2014,06,08,17,13,19.90
2014,06,08,17,14,19.90
2014,06,08,17,15,19.80
2014,06,08,17,16,19.80
2014,06,08,17,17,19.70
2014,06,08,17,18,19.70
2014,06,08,17,19,19.60
2014,06,08,17,20,19.60
2014,06,08,17,21,19.60
2014,06,08,17,22,19.60
2014,06,08,17,23,19.60
2014,06,08,17,24,19.70
2014,06,08,17,25,19.70
2014,06,08,17,26,19.80
2014,06,08,17,27,19.90
2014,06,08,17,28,19.90
2014,06,08,17,29,20.00
2014,06,08,17,30,20.00
2014,06,08,17,31,20.10
2014,06,08,17,32,20.10
2014,06,08,17,33,20.10
2014,06,08,17,34,20.20
2014,06,08,17,35,20.20
2014,06,08,17,36,20.20
2014,06,08,17,37,20.10
2014,06,08,17,38,20.00
2014,06,08,17,39,19.90
2014,06,08,17,40,19.80
2014,06,08,17,41,19.80
2014,06,08,17,42,19.70
2014,06,08,17,43,19.60
2014,06,08,17,44,19.50
2014,06,08,17,45,19.40
2014,06,08,17,46,19.40
2014,06,08,17,47,19.40
2014,06,08,17,48,19.40
2014,06,08,17,49,19.30
2014,06,08,17,50,19.30
2014,06,08,17,51,19.30
2014,06,08,17,52,19.30
2014,06,08,17,53,19.30
2014,06,08,17,54,19.20
2014,06,08,17,55,19.20
2014,06,08,17,56,19.20
2014,06,08,17,57,19.20
2014,06,08,17,58,19.20
2014,06,08,17,59,19.10
2014,06,08,18,00,19.10
2014,06,08,18,01,19.10
2014,06,08,18,02,19.10
2014,06,08,18,03,19.10
2014,06,08,18,04,19.10
2014,06,08,18,05,19.10
2014,06,08,18,06,19.00
2014,06,08,18,07,19.00
2014,06,08,18,08,18.90
2014,06,08,18,09,18.80
2014,06,08,18,10,18.80
2014,06,08,18,11,18.70
2014,06,08,18,12,18.60
2014,06,08,18,13,18.50
2014,06,08,18,14,18.50
2014,06,08,18,15,18.40
2014,06,08,18,16,18.40
2014,06,08,18,17,18.30
2014,06,08,18,18,18.30
2014,06,08,18,19,18.20
2014,06,08,18,20,18.20
2014,06,08,18,21,18.20
2014,06,08,18,22,18.20
2014,06,08,18,23,18.10
2014,06,08,18,24,18.10
2014,06,08,18,25,18.10
2014,06,08,18,26,18.00
2014,06,08,18,27,18.00
2014,06,08,18,28,17.90
2014,06,08,18,29,17.90
2014,06,08,18,30,17.80
2014,06,08,18,31,17.80
2014,06,08,18,32,17.70
2014,06,08,18,33,17.70
2014,06,08,18,34,17.70
2014,06,08,18,35,17.60
2014,06,08,18,36,17.60
2014,06,08,18,37,17.60
2014,06,08,18,38,17.60
2014,06,08,18,39,17.50
2014,06,08,18,40,17.50
2014,06,08,18,41,17.50
2014,06,08,18,42,17.40
2014,06,08,18,43,17.40
2014,06,08,18,44,17.40
2014,06,08,18,45,17.40
2014,06,08,18,46,17.40
2014,06,08,18,47,17.40
2014,06,08,18,48,17.40
2014,06,08,18,49,17.40
2014,06,08,18,50,17.40
2014,06,08,18,51,17.50
2014,06,08,18,52,17.50
2014,06,08,18,53,17.50
2014,06,08,18,54,17.50
2014,06,08,18,55,17.50
2014,06,08,18,56,17.50
2014,06,08,18,57,17.50
2014,06,08,18,58,17.50
2014,06,08,18,59,17.50
2014,06,08,19,00,17.50
2014,06,08,19,01,17.50
2014,06,08,19,02,17.50
2014,06,08,19,03,17.50
2014,06,08,19,04,17.60
2014,06,08,19,05,17.60
2014,06,08,19,06,17.60
2014,06,08,19,07,17.60
2014,06,08,19,08,17.70
2014,06,08,19,09,17.70
2014,06,08,19,10,17.70
2014,06,08,19,11,17.70
2014,06,08,19,12,17.60
2014,06,08,19,13,17.60
2014,06,08,19,14,17.60
2014,06,08,19,15,17.60
2014,06,08,19,16,17.50
2014,06,08,19,17,17.50
2014,06,08,19,18,17.40
2014,06,08,19,19,17.40
2014,06,08,19,20,17.30
2014,06,08,19,21,17.30
2014,06,08,19,22,17.30
2014,06,08,19,23,17.30
2014,06,08,19,24,17.20
2014,06,08,19,25,17.10
2014,06,08,19,26,17.00
2014,06,08,19,27,16.90
2014,06,08,19,28,16.80
2014,06,08,19,29,16.80
2014,06,08,19,30,16.80
2014,06,08,19,31,16.70
2014,06,08,19,32,16.70
2014,06,08,19,33,16.70
2014,06,08,19,34,16.70
2014,06,08,19,35,16.60
2014,06,08,19,36,16.60
2014,06,08,19,37,16.60
2014,06,08,19,38,16.60
2014,06,08,19,39,16.60
2014,06,08,19,40,16.50
2014,06,08,19,41,16.50
2014,06,08,19,42,16.40
2014,06,08,19,43,16.40
2014,06,08,19,44,16.30
2014,06,08,19,45,16.20
2014,06,08,19,46,16.20
2014,06,08,19,47,16.10
2014,06,08,19,48,16.10
2014,06,08,19,49,16.10
2014,06,08,19,50,16.10
2014,06,08,19,51,16.10
2014,06,08,19,52,16.10
2014,06,08,19,53,16.10
2014,06,08,19,54,16.10
2014,06,08,19,55,16.10
2014,06,08,19,56,16.20
2014,06,08,19,57,16.20
2014,06,08,19,58,16.20
2014,06,08,19,59,16.20
2014,06,08,20,00,16.20
2014,06,08,20,01,16.20
2014,06,08,20,02,16.20
2014,06,08,20,03,16.20
2014,06,08,20,04,16.10
2014,06,08,20,05,16.10
2014,06,08,20,06,16.10
2014,06,08,20,07,16.10
2014,06,08,20,08,16.10
2014,06,08,20,09,16.10
2014,06,08,20,10,16.00
2014,06,08,20,11,16.00
2014,06,08,20,12,16.00
2014,06,08,20,13,15.90
2014,06,08,20,14,15.90
2014,06,08,20,15,15.90
2014,06,08,20,16,15.80
2014,06,08,20,17,15.80
2014,06,08,20,18,15.80
2014,06,08,20,19,15.80
2014,06,08,20,20,15.80
2014,06,08,20,21,15.80
2014,06,08,20,22,15.80
2014,06,08,20,23,15.80
2014,06,08,20,24,15.80
2014,06,08,20,25,15.80
2014,06,08,20,26,15.80
2014,06,08,20,27,15.80
